Retour au catalogue

STARLINK-31404

ActifCommunicationsVLEO
NORAD 59521·PAYLOAD·🇺🇸 United States

Lancé Apr 17, 2024 depuis Cape Canaveral Space Force Station

Loading…

Prochains Passages (prochaines 24 heures)

TLE

FraisSource: CelesTrak SupGP

Époque: Sep 15, 2026, 02:21 UTC

1 59521C 24073L   26258.09840278  .00038880  00000+0  14079-2 0  2586
2 59521  43.0034 328.6708 0001789 270.3927 294.4892 15.27567013    13

Suivez STARLINK-31404 en temps réel avec AllMySat

Download on the App Store